Location: Bucquoy
(50.1391°N, 2.7097°E)
Time: 03:53:46
(UTC+00:00)

NOSS 2-1 (E) - Pass Details

Date: 06 May 2021
Orbit: 431 x 1770 km, 63.3° (Epoch: 19 May)

Event Time Altitude Azimuth Distance (km) Brightness Sun altitude
Rises 01:47:47 0° 316° (NW) 2,902 7.2 -18.1°
Reaches altitude 10° 01:49:45 10° 315° (NW) 2,127 6.5 -17.9°
Maximum altitude 01:54:35 83° 229° (SW) 862 4.1 -17.5°
Drops below altitude 10° 02:01:29 10° 142° (SE) 2,985 6.9 -16.9°
Sets 02:04:40 0° 142° (SE) 4,169 7.6 -16.6°
